CAPE
0 0 0 0 0 0 0 0 0 0 0 0 0 0 0 0 0 0 0 0 0 0 0 0 0 0 1128 1379 1547 1835 1898 2008 2040 1918 1743 1551 1359 1390 1594 1844 1801 1574 1633 1451
0 0 0 0 0 0 0 0 0 0 0 0 0 0 0 0 0 0 0 0 0 0 0 0 0 0 788 1297 1508 1663 1692 1711 1853 1786 1544 1315 1146 1060 1096 1274 1600 1677 1610 1475
0 0 0 0 0 0 0 0 0 0 0 0 0 0 0 0 0 0 0 0 0 0 0 0 0 0 345 1164 1440 1633 1637 1603 1652 1704 1630 1406 1154 979 1004 1032 1188 1306 1696 1950
0 0 0 0 0 0 0 0 0 0 0 0 0 0 0 0 0 0 0 0 0 0 0 0 0 0 46 849 1305 1600 1713 1662 1616 1646 1629 1545 1380 1336 1289 1327 1161 903 1151 1212
0 0 0 0 0 0 0 0 0 0 0 0 0 0 0 0 0 0 0 0 0 0 0 0 0 0 0 680 1168 1414 1780 1773 1699 1682 1650 1600 1560 1629 1737 1843 1805 1705 1349 948
0 0 0 0 0 0 0 0 0 0 0 0 0 0 0 0 0 0 0 0 0 0 0 0 0 373 1161 987 1346 1505 1587 1713 1753 1688 1675 1716 1827 2034 2083 2143 2142 2088 1991 1729
0 0 0 0 0 0 0 0 0 0 0 0 0 0 0 0 0 0 0 0 0 0 0 0 0 5 13 334 960 1767 1983 2001 1998 2034 2080 2088 2103 2141 2197 2253 2320 2297 1668 1605
0 0 0 0 0 0 0 0 0 0 0 0 0 0 0 0 0 0 0 0 0 0 0 0 0 13 161 267 436 691 1071 1501 1890 1883 1947 2046 2106 2111 2149 2210 2131 2435 1775 1140
0 0 0 0 0 0 0 0 0 0 0 0 0 0 0 0 0 0 0 0 0 0 0 0 6 48 152 347 450 507 570 965 1757 1990 1992 2018 2063 2106 2081 2065 1618 1695 1665 1668
0 0 0 0 0 0 0 0 0 0 0 0 0 0 0 0 0 0 0 0 0 0 0 0 2 14 46 150 265 359 364 315 606 1720 1942 2021 2036 1893 1736 1669 1866 1484 1597 1268
0 0 0 0 0 0 0 0 0 0 0 0 0 0 0 0 0 0 0 0 0 1 5 6 1 7 15 72 156 273 368 371 46 372 1113 1455 1545 1617 1540 1477 1478 1538 1619 1297
0 0 0 0 0 1 0 0 0 0 0 0 0 0 0 0 0 0 0 0 0 0 0 0 0 10 15 6 90 221 346 397 286 58 149 250 348 445 709 784 885 1093 1191 995
0 0 0 0 0 0 0 0 0 0 0 0 0 0 0 0 0 0 0 0 0 0 0 0 0 0 15 9 35 155 306 430 433 399 241 301 391 495 742 877 1027 1083 956 776
1 0 0 0 0 0 0 0 0 0 0 0 0 0 0 0 0 0 0 0 0 0 0 0 0 0 1 24 55 180 268 363 463 573 628 711 791 843 891 1061 1209 953 784 479
2 5 1 0 4 0 0 0 0 0 0 0 0 0 0 0 0 0 0 0 0 0 0 0 6 6 14 9 8 39 189 372 474 509 675 868 982 1127 1139 1087 1051 964 599 31
14 14 7 0 0 0 0 0 0 0 0 0 0 0 0 0 0 0 0 0 0 0 0 0 0 0 0 0 0 0 0 54 490 584 701 942 1103 1219 1123 905 741 617 316 170
42 15 5 0 0 0 0 0 0 0 0 0 0 0 0 0 0 0 0 0 0 0 0 0 0 0 0 0 0 0 0 0 0 98 583 808 850 1023 1130 1022 718 456 249 119
12 24 16 0 0 0 0 0 0 0 0 0 0 0 0 0 0 0 0 0 0 0 0 0 0 0 0 0 0 0 0 1 6 9 10 63 318 408 487 593 355 237 121 47
0 10 22 0 0 0 0 0 0 0 0 0 0 0 0 0 0 0 0 0 0 0 0 0 0 0 0 0 0 0 0 6 14 8 11 18 39 81 88 94 75 37 16 12
0 0 0 0 0 0 0 0 0 0 0 0 0 0 0 1 15 2 0 0 0 0 0 0 0 0 0 0 0 0 0 8 15 0 0 1 6 54 61 45 55 39 29 12
0 0 0 0 0 0 0 0 0 0 0 3 50 41 39 27 12 17 33 11 0 0 0 0 8 33 35 11 4 4 2 0 4 0 2 0 1 0 12 2 0 5 8 29
0 0 0 0 0 0 0 0 0 0 0 0 0 0 0 0 1 2 5 4 0 0 0 0 0 0 0 3 0 0 0 4 6 3 1 0 0 0 0 0 0 0 0 0
0 0 0 0 0 0 0 5 8 31 26 12 7 13 15 9 3 5 1 0 0 0 0 0 0 0 0 0 3 0 0 19 6 0 0 0 0 0 0 3 0 0 4 3
0 1 0 0 0 0 0 0 3 4 14 16 12 1 0 0 4 0 0 0 0 0 3 1 0 0 0 0 0 0 0 0 6 0 0 1 0 0 0 0 0 0 0 0
0 0 0 0 3 27 12 17 15 31 0 1 0 0 2 0 0 0 0 0 0 0 0 0 0 0 1 5 4 0 0 0 0 0 0 0 0 0 0 0 0 0 0 0
0 0 0 0 0 0 23 25 11 11 2 0 0 0 0 0 0 0 0 0 0 0 0 0 0 0 0 0 0 3 5 0 0 0 0 0 0 0 0 0 0 0 0 0
CIN
-0 -0 -0 -0 -0 -0 -0 -0 -0 -0 -0 -0 -0 -0 -0 -0 -0 -0 -0 -0 -0 -0 -0 -0 -0 -0 -261 -274 -234 -291 -322 -307 -283 -270 -251 -233 -286 -239 -184 -136 -112 -103 -65 -61
-0 -0 -0 -0 -0 -0 -0 -0 -0 -0 -0 -0 -0 -0 -0 -0 -0 -0 -0 -0 -0 -0 -0 -0 -0 -0 -295 -297 -252 -265 -321 -322 -317 -268 -302 -316 -343 -311 -273 -208 -138 -94 -65 -50
-0 -0 -0 -0 -0 -0 -0 -0 -0 -0 -0 -0 -0 -0 -0 -0 -0 -0 -0 -0 -0 -0 -0 -0 -0 -0 -340 -322 -282 -357 -406 -348 -293 -255 -226 -233 -172 -89 -261 -238 -176 -134 -69 -25
-0 -0 -0 -0 -0 -0 -0 -0 -0 -0 -0 -0 -0 -0 -0 -0 -0 -0 -0 -0 -0 -0 -0 -0 -0 -0 -137 -346 -281 -405 -382 -364 -296 -253 -217 -188 -83 -48 -33 -27 -31 -184 -108 -67
-0 -0 -0 -0 -0 -0 -0 -0 -0 -0 -0 -0 -0 -0 -0 -0 -0 -0 -0 -0 -0 -0 -0 -0 -0 -0 -0 -375 -351 -400 -392 -318 -271 -230 -200 -134 -59 -46 -45 -33 -29 -18 -22 -35
-0 -0 -0 -0 -0 -0 -0 -0 -0 -0 -0 -0 -0 -0 -0 -0 -0 -0 -0 -0 -0 -0 -0 -0 -0 -214 -228 -324 -394 -291 -264 -281 -216 -161 -133 -101 -42 -25 -18 -19 -12 -1 -0 -0
-0 -0 -0 -0 -0 -0 -0 -0 -0 -0 -0 -0 -0 -0 -0 -0 -0 -0 -0 -0 -0 -0 -0 -0 -0 -82 -479 -379 -254 -235 -161 -123 -106 -75 -66 -70 -72 -43 -19 -9 -1 -0 -0 -2
-0 -0 -0 -0 -0 -0 -0 -0 -0 -0 -0 -0 -0 -0 -0 -0 -0 -0 -0 -0 -0 -0 -0 -0 -23 -299 -410 -440 -447 -375 -304 -226 -180 -158 -127 -88 -66 -64 -41 -12 -1 -0 -4 -44
-0 -0 -0 -0 -0 -0 -0 -0 -0 -0 -0 -0 -0 -0 -0 -0 -0 -0 -0 -0 -0 -0 -0 -0 -253 -258 -299 -377 -373 -312 -311 -332 -199 -149 -111 -93 -80 -54 -27 -1 -5 -2 -2 -0
-0 -0 -0 -0 -0 -0 -0 -0 -0 -0 -0 -0 -0 -0 -0 -0 -0 -0 -0 -0 -0 -9 -0 -0 -123 -180 -236 -354 -347 -359 -312 -328 -419 -231 -161 -116 -85 -56 -22 -6 -0 -3 -0 -0
-0 -0 -0 -0 -0 -0 -0 -0 -0 -0 -0 -0 -0 -0 -0 -0 -0 -0 -0 -0 -0 -20 -22 -20 -36 -195 -167 -182 -298 -302 -313 -319 -470 -442 -268 -195 -136 -77 -24 -7 -3 -0 -0 -0
-0 -0 -0 -0 -0 -37 -2 -0 -0 -0 -0 -0 -0 -0 -0 -0 -0 -0 -0 -5 -0 -0 -0 -0 -0 -113 -141 -188 -228 -251 -258 -282 -322 -459 -414 -328 -289 -229 -132 -85 -41 -1 -0 -0
-0 -0 -0 -0 -0 -0 -0 -0 -0 -0 -0 -0 -0 -0 -0 -0 -0 -0 -0 -0 -0 -0 -0 -0 -0 -0 -128 -152 -195 -232 -242 -253 -209 -223 -242 -273 -230 -186 -119 -95 -62 -17 -0 -0
-58 -0 -0 -0 -0 -0 -0 -0 -0 -0 -0 -0 -0 -0 -0 -0 -0 -0 -0 -0 -0 -0 -0 -0 -0 -0 -10 -111 -129 -156 -204 -246 -210 -202 -172 -157 -155 -123 -99 -73 -39 -38 -15 -15
-143 -127 -93 -92 -115 -0 -0 -0 -0 -0 -0 -0 -0 -0 -0 -0 -0 -0 -0 -0 -0 -0 -0 -0 -10 -6 -4 -3 -82 -183 -194 -247 -267 -239 -210 -158 -123 -90 -61 -47 -26 -19 -11 -55
-101 -75 -69 -0 -0 -0 -0 -0 -0 -0 -0 -0 -0 -0 -0 -0 -0 -0 -0 -0 -0 -0 -0 -0 -0 -0 -0 -0 -0 -0 -0 -218 -229 -214 -170 -117 -84 -52 -43 -31 -37 -14 -6 -4
-27 -49 -73 -0 -0 -0 -0 -0 -0 -0 -0 -0 -0 -0 -0 -0 -0 -0 -0 -0 -0 -0 -0 -0 -0 -0 -0 -0 -0 -0 -0 -0 -0 -338 -172 -95 -65 -44 -24 -13 -7 -4 -6 -0
-63 -19 -13 -0 -0 -0 -0 -0 -0 -0 -0 -0 -0 -0 -0 -0 -0 -0 -0 -0 -0 -0 -0 -0 -0 -0 -0 -0 -0 -0 -0 -14 -11 -18 -149 -176 -88 -59 -32 -15 -19 -9 -5 -1
-0 -138 -105 -0 -0 -0 -0 -0 -0 -0 -0 -0 -0 -0 -0 -0 -0 -0 -0 -0 -0 -0 -0 -0 -0 -0 -0 -0 -0 -0 -0 -40 -32 -42 -46 -55 -156 -95 -68 -57 -32 -7 -1 -1
-0 -0 -2 -0 -0 -0 -0 -0 -0 -0 -0 -0 -0 -0 -0 -5 -73 -13 -0 -0 -0 -0 -0 -0 -0 -0 -0 -0 -0 -0 -0 -1 -6 -0 -0 -3 -113 -111 -75 -67 -27 -5 -6 -0
-0 -0 -0 -0 -0 -0 -0 -0 -0 -0 -0 -28 -17 -13 -6 -10 -8 -2 -9 -9 -0 -0 -0 -0 -7 -2 -8 -4 -45 -34 -6 -0 -3 -0 -24 -0 -5 -55 -59 -25 -0 -17 -2 -0
-0 -0 -0 -0 -0 -0 -0 -0 -0 -0 -0 -0 -0 -0 -0 -0 -13 -9 -0 -26 -0 -0 -0 -0 -0 -0 -0 -7 -0 -0 -0 -8 -4 -1 -1 -0 -0 -0 -0 -0 -6 -0 -0 -0
-0 -0 -0 -0 -0 -0 -0 -70 -19 -7 -4 -4 -11 -0 -0 -0 -4 -0 -0 -0 -0 -0 -0 -0 -0 -0 -0 -0 -2 -0 -0 -0 -0 -5 -0 -0 -0 -0 -0 -25 -0 -0 -0 -0
-0 -0 -0 -0 -0 -0 -0 -0 -18 -15 -9 -2 -2 -0 -0 -0 -1 -0 -0 -0 -0 -0 -6 -1 -0 -0 -0 -0 -0 -0 -0 -0 -4 -0 -0 -20 -0 -0 -0 -0 -0 -0 -0 -0
-0 -0 -0 -0 -9 -14 -1 -3 -3 -0 -0 -7 -3 -0 -0 -0 -0 -0 -0 -0 -0 -0 -0 -0 -0 -0 -0 -0 -0 -0 -0 -0 -0 -0 -0 -0 -0 -0 -0 -0 -0 -0 -0 -0
-0 -0 -0 -0 -0 -0 -0 -0 -1 -0 -0 -0 -0 -0 -0 -0 -0 -0 -0 -0 -0 -0 -0 -0 -0 -0 -0 -0 -0 -3 -0 -0 -0 -0 -0 -0 -0 -0 -0 -0 -0 -0 -0 -0
Wind_Speed
nan nan nan nan nan nan nan nan nan nan nan nan nan nan nan nan nan nan nan nan nan nan nan nan nan nan 35 33 27 24 23 24 25 22 22 21 23 25 26 27 28 32 32 36
nan nan nan nan nan nan nan nan nan nan nan nan nan nan nan nan nan nan nan nan nan nan nan nan nan nan 33 34 28 21 15 19 22 23 24 23 25 24 26 29 31 32 35 39
nan nan nan nan nan nan nan nan nan nan nan nan nan nan nan nan nan nan nan nan nan nan nan nan nan nan 31 25 22 21 19 20 18 21 27 29 36 31 29 31 31 35 36 40
nan nan nan nan nan nan nan nan nan nan nan nan nan nan nan nan nan nan nan nan nan nan nan nan nan nan nan 24 20 19 20 22 21 26 27 27 30 32 30 33 35 38 41 39
nan nan nan nan nan nan nan nan nan nan nan nan nan nan nan nan nan nan nan nan nan nan nan nan nan nan nan 29 27 27 25 25 24 23 25 29 30 32 36 37 37 38 40 45
nan nan nan nan nan nan nan nan nan nan nan nan nan nan nan nan nan nan nan nan nan nan nan nan nan 26 28 30 34 34 35 30 30 32 33 34 33 36 37 37 38 39 42 43
nan nan nan nan nan nan nan nan nan nan nan nan nan nan nan nan nan nan nan nan nan nan nan nan nan nan nan 33 36 38 37 36 39 40 38 37 36 36 35 37 37 40 41 43
nan nan nan nan nan nan nan nan nan nan nan nan nan nan nan nan nan nan nan nan nan nan nan nan nan nan 38 43 44 44 39 39 42 43 40 38 37 37 37 37 38 40 40 41
nan nan nan nan nan nan nan nan nan nan nan nan nan nan nan nan nan nan nan nan nan nan nan nan nan nan 41 46 48 51 44 45 43 41 41 42 43 42 40 38 41 41 41 43
nan nan nan nan nan nan nan nan nan nan nan nan nan nan nan nan nan nan nan nan nan nan nan nan nan nan nan 38 41 44 43 45 44 43 43 43 41 39 39 40 40 44 44 48
nan nan nan nan nan nan nan nan nan nan nan nan nan nan nan nan nan nan nan nan nan nan nan nan nan nan nan nan 39 38 40 39 nan 41 40 41 40 41 43 43 44 49 51 53
nan nan nan nan nan nan nan nan nan nan nan nan nan nan nan nan nan nan nan nan nan nan nan nan nan nan nan nan nan 37 43 48 42 nan 41 39 43 51 45 44 48 53 53 50
nan nan nan nan nan nan nan nan nan nan nan nan nan nan nan nan nan nan nan nan nan nan nan nan nan nan nan nan nan 36 35 33 34 38 40 40 43 45 43 47 54 55 56 54
nan nan nan nan nan nan nan nan nan nan nan nan nan nan nan nan nan nan nan nan nan nan nan nan nan nan nan nan nan 41 32 33 34 38 39 39 40 42 44 49 52 55 59 62
nan nan nan nan nan nan nan nan nan nan nan nan nan nan nan nan nan nan nan nan nan nan nan nan nan nan nan nan nan nan 39 41 44 41 41 41 43 44 51 52 52 59 63 nan
nan nan nan nan nan nan nan nan nan nan nan nan nan nan nan nan nan nan nan nan nan nan nan nan nan nan nan nan nan nan nan nan 46 47 48 47 50 55 54 55 58 62 65 66
nan nan nan nan nan nan nan nan nan nan nan nan nan nan nan nan nan nan nan nan nan nan nan nan nan nan nan nan nan nan nan nan nan nan 51 54 56 55 57 60 64 68 70 71
nan nan nan nan nan nan nan nan nan nan nan nan nan nan nan nan nan nan nan nan nan nan nan nan nan nan nan nan nan nan nan nan nan nan nan nan 59 60 66 70 72 71 70 nan
nan nan nan nan nan nan nan nan nan nan nan nan nan nan nan nan nan nan nan nan nan nan nan nan nan nan nan nan nan nan nan nan nan nan nan nan nan nan nan nan nan nan nan nan
nan nan nan nan nan nan nan nan nan nan nan nan nan nan nan nan nan nan nan nan nan nan nan nan nan nan nan nan nan nan nan nan nan nan nan nan nan nan nan nan nan nan nan nan
nan nan nan nan nan nan nan nan nan nan nan nan nan nan nan nan nan nan nan nan nan nan nan nan nan nan nan nan nan nan nan nan nan nan nan nan nan nan nan nan nan nan nan nan
nan nan nan nan nan nan nan nan nan nan nan nan nan nan nan nan nan nan nan nan nan nan nan nan nan nan nan nan nan nan nan nan nan nan nan nan nan nan nan nan nan nan nan nan
nan nan nan nan nan nan nan nan nan nan nan nan nan nan nan nan nan nan nan nan nan nan nan nan nan nan nan nan nan nan nan nan nan nan nan nan nan nan nan nan nan nan nan nan
nan nan nan nan nan nan nan nan nan nan nan nan nan nan nan nan nan nan nan nan nan nan nan nan nan nan nan nan nan nan nan nan nan nan nan nan nan nan nan nan nan nan nan nan
nan nan nan nan nan nan nan nan nan nan nan nan nan nan nan nan nan nan nan nan nan nan nan nan nan nan nan nan nan nan nan nan nan nan nan nan nan nan nan nan nan nan nan nan
nan nan nan nan nan nan nan nan nan nan nan nan nan nan nan nan nan nan nan nan nan nan nan nan nan nan nan nan nan nan nan nan nan nan nan nan nan nan nan nan nan nan nan nan
Wind_Direction
nan nan nan nan nan nan nan nan nan nan nan nan nan nan nan nan nan nan nan nan nan nan nan nan nan nan 311 316 324 321 311 303 298 294 298 300 311 297 292 292 304 311 316 317
nan nan nan nan nan nan nan nan nan nan nan nan nan nan nan nan nan nan nan nan nan nan nan nan nan nan 305 316 328 324 322 309 310 305 304 298 300 298 295 293 302 310 311 313
nan nan nan nan nan nan nan nan nan nan nan nan nan nan nan nan nan nan nan nan nan nan nan nan nan nan 307 318 319 310 315 310 308 297 286 277 280 276 286 292 300 306 312 311
nan nan nan nan nan nan nan nan nan nan nan nan nan nan nan nan nan nan nan nan nan nan nan nan nan nan nan 310 296 289 287 291 287 285 286 299 301 301 303 304 304 305 308 307
nan nan nan nan nan nan nan nan nan nan nan nan nan nan nan nan nan nan nan nan nan nan nan nan nan nan nan 296 297 288 287 286 283 288 293 300 303 298 292 293 300 306 305 313
nan nan nan nan nan nan nan nan nan nan nan nan nan nan nan nan nan nan nan nan nan nan nan nan nan 292 287 278 282 292 302 306 299 304 304 307 304 294 291 295 301 305 310 310
nan nan nan nan nan nan nan nan nan nan nan nan nan nan nan nan nan nan nan nan nan nan nan nan nan nan nan 288 286 285 289 296 302 307 308 307 305 301 302 304 304 302 303 303
nan nan nan nan nan nan nan nan nan nan nan nan nan nan nan nan nan nan nan nan nan nan nan nan nan nan 286 291 292 285 289 291 296 300 303 301 302 296 297 300 300 304 305 305
nan nan nan nan nan nan nan nan nan nan nan nan nan nan nan nan nan nan nan nan nan nan nan nan nan nan 289 281 282 285 285 283 283 285 288 291 294 297 299 304 303 301 302 298
nan nan nan nan nan nan nan nan nan nan nan nan nan nan nan nan nan nan nan nan nan nan nan nan nan nan nan 277 271 278 278 277 280 285 288 290 292 294 291 290 295 299 296 299
nan nan nan nan nan nan nan nan nan nan nan nan nan nan nan nan nan nan nan nan nan nan nan nan nan nan nan nan 279 281 277 281 nan 294 294 290 290 291 291 298 300 299 296 300
nan nan nan nan nan nan nan nan nan nan nan nan nan nan nan nan nan nan nan nan nan nan nan nan nan nan nan nan nan 280 280 286 296 nan 291 294 295 290 298 299 297 296 299 298
nan nan nan nan nan nan nan nan nan nan nan nan nan nan nan nan nan nan nan nan nan nan nan nan nan nan nan nan nan 289 287 292 291 289 292 289 287 295 303 304 301 300 300 300
nan nan nan nan nan nan nan nan nan nan nan nan nan nan nan nan nan nan nan nan nan nan nan nan nan nan nan nan nan 296 297 303 299 297 291 289 293 301 305 304 305 304 305 302
nan nan nan nan nan nan nan nan nan nan nan nan nan nan nan nan nan nan nan nan nan nan nan nan nan nan nan nan nan nan 301 301 299 299 299 301 300 302 303 299 298 301 301 nan
nan nan nan nan nan nan nan nan nan nan nan nan nan nan nan nan nan nan nan nan nan nan nan nan nan nan nan nan nan nan nan nan 292 297 301 302 299 300 300 298 299 298 299 299
nan nan nan nan nan nan nan nan nan nan nan nan nan nan nan nan nan nan nan nan nan nan nan nan nan nan nan nan nan nan nan nan nan nan 291 290 293 297 301 300 298 299 301 301
nan nan nan nan nan nan nan nan nan nan nan nan nan nan nan nan nan nan nan nan nan nan nan nan nan nan nan nan nan nan nan nan nan nan nan nan 292 299 300 298 299 299 299 nan
nan nan nan nan nan nan nan nan nan nan nan nan nan nan nan nan nan nan nan nan nan nan nan nan nan nan nan nan nan nan nan nan nan nan nan nan nan nan nan nan nan nan nan nan
nan nan nan nan nan nan nan nan nan nan nan nan nan nan nan nan nan nan nan nan nan nan nan nan nan nan nan nan nan nan nan nan nan nan nan nan nan nan nan nan nan nan nan nan
nan nan nan nan nan nan nan nan nan nan nan nan nan nan nan nan nan nan nan nan nan nan nan nan nan nan nan nan nan nan nan nan nan nan nan nan nan nan nan nan nan nan nan nan
nan nan nan nan nan nan nan nan nan nan nan nan nan nan nan nan nan nan nan nan nan nan nan nan nan nan nan nan nan nan nan nan nan nan nan nan nan nan nan nan nan nan nan nan
nan nan nan nan nan nan nan nan nan nan nan nan nan nan nan nan nan nan nan nan nan nan nan nan nan nan nan nan nan nan nan nan nan nan nan nan nan nan nan nan nan nan nan nan
nan nan nan nan nan nan nan nan nan nan nan nan nan nan nan nan nan nan nan nan nan nan nan nan nan nan nan nan nan nan nan nan nan nan nan nan nan nan nan nan nan nan nan nan
nan nan nan nan nan nan nan nan nan nan nan nan nan nan nan nan nan nan nan nan nan nan nan nan nan nan nan nan nan nan nan nan nan nan nan nan nan nan nan nan nan nan nan nan
nan nan nan nan nan nan nan nan nan nan nan nan nan nan nan nan nan nan nan nan nan nan nan nan nan nan nan nan nan nan nan nan nan nan nan nan nan nan nan nan nan nan nan nan